OEAB

Details ICAO OEAB (AHB)
Name ABHA
Region Saudi Arabia
Timezone Asia/Riyadh (UTC+3.0)
Plans Departing 68
Arriving 61
Stats Elevation 6,858 ft / 2,090 m (AMSL)
Location 18.240378° 42.656633°
Runways 1
Magnetic Variation 2.788° E
Sunrise 2018-05-20 02:36:05 UTC / 2018-05-20 05:36:05 Local
Sunset 2018-05-20 15:38:32 UTC / 2018-05-20 18:38:32 Local
Advertisement - Login to hide

Runways

ID Width Length Bearing (true) Bearing (mag) Surface Threshold Offset Overrun Length
13 148 ft / 45 m 11,036 ft / 3,364 m 129.07° 126.28° Asphalt 0 ft / 0 m 400 ft / 122 m
31 148 ft / 45 m 11,036 ft / 3,364 m 309.07° 306.28° Asphalt 0 ft / 0 m 400 ft / 122 m

Approach Navaids

Runway Type Ident Frequency Range Bearing (true) Bearing (mag) Slope Elevation
13 Localiser IABH 109.90 MHz 18 nm / 33 km 129.24° 126.45° - 6,858 ft / 2,090 m (AMSL)
13 Glidescope IABH 109.90 MHz 10 nm / 19 km 129.07° 126.28° 3.00° 6,858 ft / 2,090 m (AMSL)
13 DME IABH 109.90 MHz 18 nm / 33 km - - - 6,858 ft / 2,090 m (AMSL)

Map

Weather


0- 5 10 15 20 25 30 35+ Temperature / ° C

Clouds and Precipitation
Forecast for 2018-05-20 18:00 UTC. Updated an hour ago

Ground ~20,000 ft ~40,000 ft Winds

METAR

OEAB 201600Z 20006KT 9999 FEW020 22/18 Q1022 NOSIG

TAF

Not found

Frequencies

Ground 121.70 MHz GND
Approach 124.50 MHz KHAMIS APP
Tower 118.10 MHz TWR
Warning: Do not use this data for real-world aviation or navigation. No guarantee of current accuracy is given.